{"data":{"norad_id":67632,"intl_designator":"2026-020R","name":"STARLINK-36633","alt_names":[],"object_type":"PAYLOAD","status":"ACTIVE","operator":null,"country":"US","launch_date":"2026-01-30","launch_site_code":"AFETR","launch_vehicle":null,"mission":null,"orbit_class":"UNKNOWN","rcs_meters":null,"size_class":null,"mass_kg":null,"dimensions":null,"purposes":["comms"],"wikipedia_slug":null,"has_3d_model":false,"image_url":null,"decayed_at":null,"tle_current":{"epoch":"2026-09-19T21:43:39.454464Z","epoch_age_seconds":120339,"freshness":"FRESH","line1":"1 67632U 26020R   26262.90531776  .00007230  00000+0  27198-3 0  9991","line2":"2 67632  42.9987 123.1871 0001333 265.9770  94.0930 15.27584011 35810","mean_motion":15.27584011,"eccentricity":0.0001333,"inclination_deg":42.9987,"raan_deg":123.1871,"arg_perigee_deg":265.977,"mean_anomaly_deg":94.093,"bstar":0.00027198,"rev_number":3581,"period_min":94.266501196051,"perigee_km":482.12249118336,"apogee_km":483.9516801946,"semimajor_km":6861.174085689,"source":"CELESTRAK","updated_at":"2026-09-20T09:00:43.613961Z"}}}